Dewpoint
7 7 7 7 8 7 7 7 8 8 7 6 5 5 4 5 4 3 3 2 1 1 1 0 1 3 2 3 4 3 4 9 11 8 9 9 9 15 20 23 26 27 27 28 29 30 31 32 32 33 34 35 36 37 38 40 41 42 43 45 46 47 48 49 49 49 49 49 49 50 50 51 51 52
7 6 7 7 8 8 8 8 7 5 3 4 6 6 7 6 4 5 3 2 2 1 1 1 2 2 2 4 5 6 6 13 10 9 8 9 9 18 21 23 25 26 26 27 28 29 30 31 31 31 33 34 35 36 37 39 41 42 43 44 46 47 47 48 49 49 49 48 49 49 50 51 52 51
8 7 8 7 8 8 8 5 4 4 5 5 5 6 6 5 5 6 5 3 3 2 1 1 1 1 2 4 4 6 6 11 10 9 9 9 15 19 17 20 22 24 25 26 27 28 29 30 30 31 33 34 35 35 35 37 39 41 42 44 45 46 46 47 48 49 49 49 48 49 50 51 51 51
8 8 7 7 8 8 6 5 5 5 5 5 5 5 4 4 5 6 6 4 3 2 1 1 1 2 2 3 4 4 6 9 15 8 8 9 17 11 10 17 19 20 22 24 25 27 28 29 29 30 31 33 34 35 36 37 37 39 41 43 44 45 46 48 48 48 49 49 49 50 51 51 51 51
8 8 9 9 10 7 4 5 6 6 5 4 5 5 5 3 4 4 5 4 3 2 2 2 2 2 3 2 3 3 4 4 6 11 7 8 8 8 8 9 15 18 21 22 24 25 26 27 28 29 31 32 33 34 34 35 36 38 40 41 43 45 46 47 47 48 49 49 49 50 50 50 50 51
9 9 10 10 8 3 4 4 5 5 4 4 6 5 5 5 5 5 5 5 4 3 3 3 2 1 3 3 3 4 3 3 5 5 6 7 7 7 7 8 10 18 20 22 24 25 27 28 29 29 29 29 32 32 31 32 35 37 38 39 42 44 46 46 47 48 49 48 49 49 50 50 50 50
10 11 10 10 4 4 5 5 5 5 5 6 5 5 5 5 5 4 4 5 5 4 4 4 3 4 4 3 3 3 4 5 6 5 5 6 8 10 8 9 11 17 20 23 24 25 26 28 28 29 29 30 32 32 31 31 32 34 36 38 40 43 44 46 47 48 48 48 48 49 49 50 50 50
12 12 12 7 5 6 5 5 6 6 6 6 6 4 5 6 5 5 6 8 8 8 7 7 6 5 4 3 3 4 4 4 4 4 5 5 6 7 10 9 9 14 20 22 23 24 25 26 27 28 29 30 30 31 31 31 31 33 34 36 39 42 43 45 47 47 47 47 47 48 49 50 49 49
14 14 10 7 6 5 4 4 5 5 5 5 6 5 6 7 8 9 9 10 10 10 9 7 5 6 4 4 3 2 2 3 3 4 4 5 6 7 8 10 11 17 20 21 22 22 24 25 26 27 28 30 30 30 31 32 32 32 34 36 39 41 42 44 45 46 46 47 48 49 50 50 50 49
16 14 7 5 6 5 4 5 5 4 4 5 6 7 8 8 9 10 11 11 11 10 9 8 6 5 4 2 1 1 2 3 4 4 4 5 6 6 7 8 10 12 13 14 15 18 20 22 23 25 27 29 29 30 31 31 31 33 34 36 38 40 42 43 44 45 46 46 46 46 47 48 48 48
15 9 4 5 6 6 5 4 4 4 5 7 8 9 9 10 11 10 10 10 11 11 10 7 5 3 2 1 1 2 3 3 3 3 4 4 6 8 7 8 9 10 12 15 19 19 20 22 22 24 26 27 27 30 30 30 31 34 34 35 38 40 41 42 43 44 44 45 45 45 45 46 47 49
12 5 4 4 5 6 5 4 4 6 7 10 10 10 11 11 11 11 11 12 12 10 8 5 3 2 1 1 1 2 2 3 3 5 5 5 5 6 7 6 7 8 8 9 10 14 15 16 19 21 25 28 28 29 30 29 31 33 34 36 38 40 41 42 43 43 43 44 44 45 45 45 45 47
6 1 2 2 2 9 12 12 11 10 11 10 9 11 12 12 12 12 14 13 11 8 6 4 4 3 2 2 2 2 2 3 3 4 5 4 4 5 5 5 6 8 8 9 10 11 12 14 15 17 19 23 26 26 29 29 30 32 33 35 39 41 41 42 42 43 43 44 44 44 44 45 45 45
2 -1 1 5 9 9 8 8 8 9 11 13 12 12 13 13 13 13 13 10 8 7 6 5 5 4 3 2 3 3 3 3 3 3 3 4 4 5 6 5 4 7 7 7 8 11 13 15 16 18 20 24 26 25 26 27 29 30 32 35 39 41 41 42 42 43 43 43 44 44 44 44 44 45
2 1 1 1 5 8 8 6 7 10 11 12 14 16 17 17 15 12 11 9 8 8 7 6 5 3 3 3 4 3 4 4 4 2 2 4 4 4 3 2 5 7 7 8 9 11 14 15 14 15 17 21 25 25 25 29 31 30 30 33 38 40 41 42 42 42 43 43 43 44 44 44 44 44
2 2 2 2 1 1 2 4 4 7 9 13 15 17 18 18 17 16 12 10 8 8 7 5 4 3 2 2 3 3 3 2 3 3 4 4 3 3 2 2 2 4 5 5 6 8 10 12 16 18 18 21 24 25 27 30 31 31 30 33 37 40 41 42 42 42 42 43 43 43 43 43 43 43
2 2 3 3 2 -0 5 8 2 3 5 11 16 17 17 16 15 14 15 14 10 9 7 6 4 4 3 2 2 3 3 4 3 3 2 3 3 3 2 1 2 5 4 5 7 9 10 13 17 18 21 25 27 26 30 33 33 32 33 35 38 40 40 41 42 42 42 42 43 43 43 42 43 42
3 3 3 3 3 -0 -0 0 4 5 7 9 12 13 11 9 10 12 12 12 12 11 8 7 6 6 6 4 4 5 7 5 4 3 3 4 4 5 4 4 4 4 7 6 7 7 8 12 16 18 18 23 30 29 29 35 36 35 37 37 39 39 40 41 42 42 42 42 42 43 43 42 42 42
3 3 4 2 -0 -1 1 1 7 8 10 13 13 10 9 8 6 5 4 6 8 10 10 9 8 8 8 8 8 8 8 8 7 7 7 7 7 7 9 9 10 9 8 7 7 6 8 10 13 15 17 21 29 33 34 35 39 39 39 39 39 39 40 41 41 42 42 42 42 42 43 42 42 42
5 5 4 0 -1 -0 1 7 11 13 13 13 11 8 8 7 5 3 9 13 14 12 10 9 9 9 10 14 11 11 10 9 10 10 10 9 8 7 5 3 5 5 8 8 8 9 10 12 14 14 17 20 28 33 34 35 38 40 40 40 39 40 40 41 41 42 42 42 42 42 43 42 42 41
6 6 4 2 1 1 1 8 13 16 16 12 10 8 7 6 3 3 5 12 16 15 14 14 15 15 16 16 16 16 15 12 11 9 6 5 6 5 3 3 3 4 7 9 8 10 11 13 15 17 20 21 28 34 35 36 37 39 40 40 40 40 40 41 41 41 42 42 42 42 43 43 42 41
7 7 9 8 1 -0 2 10 15 16 14 11 9 8 6 2 1 3 7 8 7 11 10 10 10 11 12 13 12 12 13 14 11 5 2 3 4 3 2 1 2 3 5 10 14 13 14 16 18 21 23 26 30 34 35 36 38 39 39 40 40 40 40 41 41 41 42 42 42 42 42 42 41 41
8 6 7 6 7 7 9 13 15 16 14 10 9 7 4 2 2 5 8 6 2 -0 -1 -1 -1 0 5 3 2 3 10 11 10 4 4 4 3 1 1 1 2 3 7 12 20 15 16 19 21 23 25 27 32 32 34 35 35 36 36 38 39 39 40 40 40 41 41 42 42 42 42 42 41 41
6 4 2 4 6 8 11 14 15 15 15 11 9 6 3 3 5 9 6 2 -1 -2 -3 -3 -2 -1 1 1 1 1 2 3 3 5 5 4 4 3 2 2 3 3 6 12 22 19 20 23 23 27 28 30 29 32 32 32 34 33 33 33 33 37 38 38 39 40 41 42 42 42 42 42 41 41
3 -1 -3 -3 4 8 11 14 15 15 14 13 8 5 6 9 10 10 0 -3 -0 -5 -5 -4 -4 -4 -3 -2 -2 -2 -1 0 2 3 5 5 5 5 3 3 4 5 8 14 21 19 18 25 28 30 31 32 32 33 33 34 34 33 33 34 33 34 37 38 39 40 40 41 42 42 42 42 41 42
-1 -3 -3 -4 3 9 13 14 14 14 13 12 6 9 14 14 12 2 -2 -5 -5 -6 -6 -6 -6 -6 -6 -5 -4 -3 -2 -1 2 3 3 4 6 7 7 6 6 7 10 17 20 17 16 19 29 32 32 32 30 32 32 32 34 35 35 36 35 34 36 38 39 40 41 41 42 42 42 42 42 42
-1 -3 -4 -1 4 11 14 13 13 12 12 9 9 14 13 11 9 2 -6 -5 -6 -7 -7 -7 -7 -7 -7 -6 -5 -3 -3 -1 1 2 3 4 6 9 11 13 13 13 16 17 17 17 16 18 26 28 31 32 32 32 33 32 32 34 35 35 35 35 36 38 39 39 40 41 41 41 42 42 42 42
-3 -5 -5 1 12 13 12 12 12 11 9 8 12 12 10 7 2 -5 -6 -6 -7 -7 -8 -8 -8 -8 -7 -7 -6 -5 -2 -1 1 2 3 4 7 9 10 11 14 16 16 15 15 15 16 17 19 21 23 31 32 32 31 33 33 34 33 35 36 36 37 38 38 38 39 40 40 41 41 41 42 42
-3 6 11 13 11 11 11 11 9 6 5 9 9 8 7 -1 -8 -7 -8 -8 -8 -10 -10 -9 -9 -8 -7 -7 -6 -3 -1 2 1 1 1 3 6 7 10 12 14 16 15 14 13 13 14 15 16 18 22 30 32 32 32 32 33 33 34 34 33 35 36 37 38 38 38 39 39 39 40 40 40 40
10 10 7 8 8 8 6 2 -3 -2 -3 5 4 3 -2 -9 -7 -8 -8 -9 -10 -11 -10 -10 -9 -9 -8 -7 -6 -3 -1 -2 -3 -1 -1 1 2 4 6 7 7 11 13 12 12 12 13 14 15 16 21 29 32 32 32 32 32 33 34 34 34 35 36 37 37 37 37 38 38 38 39 41 40 39
-8 -3 1 1 5 2 2 2 0 -0 -1 -4 -7 -9 -8 -9 -10 -8 -9 -9 -11 -11 -11 -10 -9 -8 -8 -7 -6 -7 -5 -5 -4 -1 -1 -1 -0 2 3 4 3 4 9 10 10 10 11 12 14 18 22 28 32 32 32 32 32 33 33 34 34 32 34 36 36 37 37 37 37 38 37 37 38 37
-9 -8 1 -1 -8 -9 -10 -10 -11 -12 -11 -9 -9 -10 -11 -10 -9 -5 -5 -6 -13 -13 -11 -10 -9 -9 -9 -10 -9 -7 -7 -6 -5 -3 -1 -2 -1 -0 2 -0 -0 2 4 5 6 8 9 10 12 19 24 25 29 32 30 28 28 31 32 33 33 32 32 35 36 36 36 36 36 36 37 38 38 38
-9 -10 -12 -13 -12 -13 -11 -12 -13 -12 -11 -11 -11 -13 -11 -12 -11 -12 -11 -12 -12 -11 -11 -11 -11 -11 -11 -11 -10 -9 -8 -7 -7 -5 -3 -2 -2 -1 0 -1 -1 0 1 2 3 4 6 7 11 20 23 22 23 24 25 22 22 23 24 26 31 32 32 33 34 35 35 36 36 36 36 37 37 37
-10 -13 -14 -13 -13 -14 -15 -14 -13 -13 -13 -12 -12 -12 -3 -10 -11 -10 -12 -13 -12 -11 -11 -11 -11 -12 -11 -12 -11 -10 -9 -9 -8 -7 -2 -4 -2 -3 -3 -2 -3 -1 1 1 1 1 3 4 7 15 24 23 22 22 21 19 18 19 21 21 22 25 28 29 31 33 34 35 35 35 35 36 36 36
-9 -13 -14 -13 -14 -15 -16 -14 -15 -14 -14 -13 -13 -12 -12 -14 -11 -11 -12 -11 -11 -12 -12 -11 -12 -12 -12 -12 -12 -11 -10 -10 -10 -9 -8 -6 -5 -5 -4 -3 -3 -2 -1 -1 -1 0 2 3 4 9 15 20 21 21 22 21 18 16 17 18 20 22 24 26 29 31 33 34 35 34 35 35 35 36
-15 -15 -14 -13 -14 -16 -16 -14 -13 -14 -16 -15 -15 -14 -13 -13 -12 -12 -13 -10 -12 -13 -13 -12 -12 -13 -13 -12 -12 -11 -10 -10 -11 -11 -10 -9 -8 -7 -5 -4 -3 -3 -2 -2 -1 0 1 1 1 3 7 11 15 15 16 18 19 17 15 15 18 20 23 25 27 30 32 34 34 34 34 34 34 35
-15 -16 -15 -15 -16 -16 -17 -17 -16 -16 -16 -16 -16 -16 -16 -15 -14 -13 -13 -12 -14 -13 -12 -12 -13 -13 -13 -12 -12 -11 -11 -12 -12 -12 -11 -10 -9 -9 -8 -6 -5 -4 -4 -4 -1 -1 -1 -0 0 -0 -0 2 6 8 11 13 14 19 16 15 17 19 21 22 26 31 32 33 33 34 33 33 33 33
-15 -16 -16 -16 -17 -17 -16 -16 -16 -16 -17 -16 -16 -16 -17 -17 -16 -15 -14 -14 -13 -14 -13 -14 -13 -13 -13 -13 -13 -13 -13 -12 -12 -13 -12 -11 -11 -11 -10 -8 -8 -7 -5 -4 -3 -3 -1 -1 -1 -1 -1 -2 -1 2 4 6 8 13 16 17 17 18 20 20 22 24 29 32 32 33 33 33 30 30
-15 -14 -16 -17 -17 -18 -16 -15 -16 -17 -18 -18 -17 -17 -17 -17 -17 -15 -14 -13 -14 -14 -14 -14 -13 -13 -13 -14 -13 -13 -14 -14 -14 -14 -13 -12 -11 -11 -11 -10 -10 -9 -8 -6 -4 -3 -3 -3 -2 -1 -1 -1 -1 -0 2 1 4 9 12 19 17 17 18 19 19 21 26 31 32 32 32 32 32 32
-15 -15 -16 -16 -17 -19 -18 -16 -17 -18 -18 -18 -18 -19 -18 -17 -17 -17 -15 -14 -14 -14 -15 -14 -13 -12 -14 -14 -13 -13 -14 -14 -14 -14 -13 -13 -11 -11 -11 -11 -11 -10 -10 -9 -8 -7 -5 -5 -3 -2 1 3 4 5 5 6 6 8 11 14 16 17 17 18 18 20 23 27 30 32 31 32 32 33
-13 -15 -16 -17 -18 -19 -19 -19 -19 -18 -19 -19 -19 -11 -18 -19 -18 -19 -16 -13 -15 -16 -15 -15 -15 -16 -15 -14 -14 -13 -14 -14 -14 -14 -14 -13 -12 -11 -11 -11 -13 -11 -11 -11 -10 -9 -8 -6 -2 2 3 2 4 9 9 6 5 7 8 8 12 15 18 19 19 20 22 27 29 31 31 31 31 32
-11 -12 -14 -16 -17 -19 -20 -20 -18 -17 -20 -19 -20 -20 -19 -17 -17 -9 -15 -16 -18 -17 -17 -16 -16 -15 -15 -15 -14 -13 -14 -15 -15 -15 -15 -14 -14 -13 -12 -13 -13 -13 -12 -12 -11 -10 -7 -3 -2 -1 -1 -0 2 2 1 3 4 4 4 5 7 11 14 16 18 20 24 25 23 22 24 29 32 31
-10 -12 -12 -15 -18 -19 -20 -20 -21 -21 -20 -18 -19 -21 -20 -20 -20 -18 -21 -19 -19 -19 -18 -18 -17 -16 -16 -15 -15 -15 -15 -15 -15 -15 -16 -15 -15 -14 -15 -14 -13 -13 -13 -12 -11 -9 -8 -6 -5 -5 -5 -4 -1 -0 -1 2 4 2 1 1 2 5 7 13 15 18 22 25 24 24 25 25 24 26
-10 -11 -13 -13 -16 -17 -19 -20 -21 -21 -20 -19 -20 -21 -20 -20 -20 -19 -21 -21 -20 -20 -20 -20 -19 -17 -17 -16 -15 -16 -15 -14 -15 -15 -16 -15 -15 -14 -15 -15 -14 -14 -14 -13 -12 -11 -9 -8 -7 -6 -7 -7 -5 -4 -2 1 0 -1 -2 -1 1 3 3 5 9 14 17 21 22 22 24 25 26 28
-9 -10 -11 -13 -14 -16 -18 -19 -20 -21 -21 -21 -20 -21 -20 -20 -19 -20 -21 -21 -21 -20 -20 -20 -20 -20 -18 -17 -16 -15 -14 -10 -13 -16 -16 -16 -15 -14 -15 -15 -15 -15 -15 -15 -14 -13 -11 -10 -9 -9 -9 -8 -6 -4 -3 -2 -2 -3 -3 -3 -2 -0 0 2 5 8 11 15 18 20 21 22 23 24